Overview Statistics Trail Chart Weather Telemetry Raw packets
 

This is the latest recevied weather packets stored in our database for station/object 9W2XPF-13. If no packets are shown the sender has not sent any weather packets the latest 10 day(s).

<< 131 132 133 134 135 136 137 >>
Time Temp. Humidity Pressure Rain* Wind** Luminosity Snow
1777172522 32.22° C 74% 1009.8 hPa 0 mm - - -
1777172402 32.22° C 75% 1009.8 hPa 0 mm - - -
1777172282 32.22° C 75% 1009.8 hPa 0 mm - - -
1777172162 31.67° C 76% 1009.8 hPa 0 mm - - -
1777172042 31.67° C 76% 1009.6 hPa 0 mm - - -
1777171922 31.67° C 77% 1009.8 hPa 0 mm - - -
1777171802 31.67° C 77% 1009.7 hPa 0 mm - - -
1777171682 31.67° C 77% 1009.7 hPa 0 mm - - -
1777171562 31.11° C 77% 1009.9 hPa 0 mm - - -
1777171442 31.11° C 77% 1009.8 hPa 0 mm - - -
1777171322 31.67° C 77% 1009.9 hPa 0 mm - - -
1777171202 31.11° C 77% 1010 hPa 0 mm - - -
1777171082 31.11° C 78% 1009.9 hPa 0 mm - - -
1777170962 31.11° C 78% 1009.9 hPa 0 mm - - -
1777170842 31.11° C 77% 1009.9 hPa 0 mm - - -
1777170722 31.11° C 79% 1009.8 hPa 0 mm - - -
1777170603 31.11° C 79% 1009.8 hPa 0 mm - - -
1777170482 31.11° C 79% 1009.7 hPa 0 mm - - -
1777170362 30.56° C 80% 1009.9 hPa 0 mm - - -
1777170242 30.56° C 80% 1009.9 hPa 0 mm - - -
1777170122 30.56° C 80% 1009.9 hPa 0 mm - - -
1777170002 30.56° C 79% 1009.8 hPa 0 mm - - -
1777169882 31.11° C 78% 1009.8 hPa 0 mm - - -
1777169762 31.11° C 78% 1009.9 hPa 0 mm - - -
1777169642 31.11° C 78% 1009.9 hPa 0 mm - - -

* Rain latest hour (hover to see other rain measurements)
** Current wind speed in m/s (hover to see current wind gust speed)